Current weather by "City, St" or "zip code"  
 

Current Conditions: ORANGE GROVE

Clear


NULL F

Last Updated on Jun 17 2024, 10:56 PM CDT
Humidity: %
Wind Speed: mph
Barometer 29.81 in
Dewpoint: F
Visibility: 10.00 mi
Precip: --
Heat Index: NA
Wind Chill: NA
Current conditions at:

ORANGE GROVE (KNOG)

Lat: 27.89 Lon: 98.04

active severe weather and emergency alerts image image weather storm and storm spotter reports image weather observation monitoring service image
Active
Alerts
Storm Reports Obs
Monitoring

Sign-up For Email & Text Message Weather Alert Notification Services



Advertise Here

Observation History for ORANGE GROVE


Time Wind
(mph)
Vis
(mi)
Weather Precip (in) Temperature (F) Relative
Humidity
Wind
Chill
(F)
Heat
Index
(F)
Pressure
Air Dwpt altimeter
(in)
sea level
(mb)
Rmks
10:56 PM CDT 10.00 Clear -- NULL % NA NA 29.81 1009.5
01:56 PM CDT 10.00 Partly Cloudy -- NULL % NA NA 29.76 1007.8
10:56 AM CDT SE 12.8 10.00 Clear -- NULL % NA NA 29.79 1008.8
08:08 AM CDT SE 5.8 10.00 Mostly Cloudy -- NULL % NA NA 29.79 1008.8
06:56 AM CDT 4.7 10.00 NULL -- NULL % NA NA 29.78 1008.5
06:07 AM CDT 4.7 10.00 Mostly Cloudy -- NULL % NA NA 29.78 1008.5
05:56 AM CDT SE 4.7 10.00 Partly Cloudy -- NULL % NA NA 29.78 1008.5
02:56 AM CDT 4.7 10.00 Clear -- NULL % NA NA 29.81 1009.2
01:56 AM CDT SE 8.1 10.00 Mostly Clear -- NULL % NA NA 29.81 1009.5
12:56 AM CDT 8.1 10.00 Clear -- NULL % NA NA 29.82 1009.8
11:56 PM CDT SE 12.8 10.00 Clear -- NULL % NA NA 29.83 1010.2
10:56 PM CDT 10.3 10.00 Mostly Clear -- NULL % NA NA 29.82 1009.8
08:56 PM CDT 15.0 10.00 Clear -- NULL % NA NA 29.78 1008.5
07:56 PM CDT 10.00 Clear -- NULL % NA NA 29.77 1008.1
06:56 PM CDT 10.00 Clear -- NULL % NA NA 29.76 1007.8
05:56 PM CDT 17.2 10.00 Clear -- NULL % NA NA 29.75 1007.5
04:56 PM CDT 10.00 Mostly Clear -- NULL % NA NA 29.76 1007.8
02:56 PM CDT 11.4 10.00 Mostly Clear -- NULL % NA NA 29.77 1008.1
12:56 PM CDT SE 10.3 10.00 Mostly Clear -- NULL % NA NA 29.83 1010.2
11:56 AM CDT SE 9.2 10.00 Mostly Cloudy -- NULL % NA NA 29.84 1010.5
10:56 AM CDT 10.00 Partly Cloudy -- NULL % NA NA 29.86 1011.2
09:56 AM CDT 10.3 10.00 Partly Cloudy -- NULL % NA NA 29.86 1011.2
09:27 AM CDT 10.3 10.00 NULL -- NULL % NA NA 29.86 1011.2
08:56 AM CDT S 6.9 10.00 Clear -- NULL % NA NA 29.86 1011.2

Regional Weather Observation


ALICE (KALI)

Clear
82.0 F

KINGSVILLE (KIKG)

Mostly Cloudy
NULL F

ROBSTOWN/NUECES (KRBO)

Clear
82.4 F

PLEASANTON MUNI (KPEZ)

NULL
76.8 F

KENEDY (K2R9)

Clear
81.0 F

KINGSVILLE NAS (KNQI)

Partly Cloudy
86.0 F

Advertise Here


Advertise Here